Time,TemperatureF,DewpointF,PressureIn,WindDirection,WindDirectionDegrees,WindSpeedMPH,WindSpeedGustMPH,Humidity,HourlyPrecipIn,Conditions,Clouds,dailyrainin,SoftwareType,DateUTC
2013-07-16 00:01:00,71.7,66.6,30.27,West,280,0.0,2.0,84,0.00,,---,0.00,VWS V14.00,2013-07-16 04:01:00,
2013-07-16 00:06:00,71.7,66.3,30.27,West,280,0.0,2.0,83,0.00,,---,0.00,VWS V14.00,2013-07-16 04:06:00,
2013-07-16 00:11:00,71.8,66.7,30.27,West,281,0.0,0.0,84,0.00,,---,0.00,VWS V14.00,2013-07-16 04:11:00,
2013-07-16 00:16:00,71.9,66.5,30.27,West,281,0.0,0.0,83,0.00,,---,0.00,VWS V14.00,2013-07-16 04:16:00,
2013-07-16 00:21:00,71.9,66.5,30.27,West,280,0.0,0.0,83,0.00,,---,0.00,VWS V14.00,2013-07-16 04:21:00,
2013-07-16 00:26:00,72.0,66.6,30.27,West,280,0.0,0.0,83,0.00,,---,0.00,VWS V14.00,2013-07-16 04:26:00,
2013-07-16 00:31:00,72.0,66.6,30.27,WNW,286,0.0,2.0,83,0.00,,---,0.00,VWS V14.00,2013-07-16 04:31:00,
2013-07-16 00:36:00,72.0,66.6,30.27,WNW,286,0.0,2.0,83,0.00,,---,0.00,VWS V14.00,2013-07-16 04:36:00,
2013-07-16 00:41:00,72.0,66.6,30.27,WNW,286,0.0,0.0,83,0.00,,---,0.00,VWS V14.00,2013-07-16 04:41:00,
2013-07-16 00:46:00,71.9,66.5,30.27,WNW,286,0.0,1.0,83,0.00,,---,0.00,VWS V14.00,2013-07-16 04:46:00,
2013-07-16 00:51:00,71.8,66.4,30.26,WNW,286,0.0,1.0,83,0.00,,---,0.00,VWS V14.00,2013-07-16 04:51:00,
2013-07-16 00:56:00,71.7,66.3,30.26,WNW,286,0.0,1.0,83,0.00,,---,0.00,VWS V14.00,2013-07-16 04:56:00,
2013-07-16 01:01:00,71.6,66.5,30.27,WNW,286,0.0,1.0,84,0.00,,---,0.00,VWS V14.00,2013-07-16 05:01:00,
2013-07-16 01:06:00,71.5,66.4,30.27,WNW,286,0.0,1.0,84,0.00,,---,0.00,VWS V14.00,2013-07-16 05:06:00,
2013-07-16 01:11:00,71.3,66.2,30.26,WNW,286,0.0,1.0,84,0.00,,---,0.00,VWS V14.00,2013-07-16 05:11:00,
2013-07-16 01:16:00,71.2,66.5,30.26,WNW,286,0.0,1.0,85,0.00,,---,0.00,VWS V14.00,2013-07-16 05:16:00,
2013-07-16 01:21:00,71.1,66.7,30.26,WNW,286,0.0,1.0,86,0.00,,---,0.00,VWS V14.00,2013-07-16 05:21:00,
2013-07-16 01:26:00,70.9,66.5,30.26,WNW,286,0.0,1.0,86,0.00,,---,0.00,VWS V14.00,2013-07-16 05:26:00,
2013-07-16 01:31:00,70.8,66.4,30.26,WNW,286,0.0,1.0,86,0.00,,---,0.00,VWS V14.00,2013-07-16 05:31:00,
2013-07-16 01:36:00,70.7,66.3,30.25,WNW,286,0.0,1.0,86,0.00,,---,0.00,VWS V14.00,2013-07-16 05:36:00,
2013-07-16 01:41:00,70.7,66.3,30.26,WNW,286,0.0,0.0,86,0.00,,---,0.00,VWS V14.00,2013-07-16 05:41:00,
2013-07-16 01:46:00,70.6,66.6,30.26,WNW,286,0.0,0.0,87,0.00,,---,0.00,VWS V14.00,2013-07-16 05:46:00,
2013-07-16 01:51:00,70.5,66.4,30.25,WNW,286,0.0,0.0,87,0.00,,---,0.00,VWS V14.00,2013-07-16 05:51:00,
2013-07-16 01:56:00,70.4,66.3,30.26,WNW,286,0.0,2.0,87,0.00,,---,0.00,VWS V14.00,2013-07-16 05:56:00,
2013-07-16 02:01:00,70.3,66.2,30.25,WNW,286,0.0,2.0,87,0.00,,---,0.00,VWS V14.00,2013-07-16 06:01:00,
2013-07-16 02:06:00,70.2,66.2,30.25,WNW,286,0.0,2.0,87,0.00,,---,0.00,VWS V14.00,2013-07-16 06:06:00,
2013-07-16 02:11:00,70.1,66.4,30.26,WNW,286,0.0,0.0,88,0.00,,---,0.00,VWS V14.00,2013-07-16 06:11:00,
2013-07-16 02:16:00,70.0,66.0,30.25,WNW,286,0.0,2.0,87,0.00,,---,0.00,VWS V14.00,2013-07-16 06:16:00,
2013-07-16 02:21:00,69.9,65.9,30.25,WNW,286,0.0,2.0,87,0.00,,---,0.00,VWS V14.00,2013-07-16 06:21:00,
2013-07-16 02:26:00,69.8,66.1,30.25,WNW,285,0.0,2.0,88,0.00,,---,0.00,VWS V14.00,2013-07-16 06:26:00,
2013-07-16 02:31:00,69.7,66.0,30.25,WNW,284,0.0,2.0,88,0.00,,---,0.00,VWS V14.00,2013-07-16 06:31:00,
2013-07-16 02:36:00,69.5,65.8,30.25,WNW,285,0.0,2.0,88,0.00,,---,0.00,VWS V14.00,2013-07-16 06:36:00,
2013-07-16 02:41:00,69.3,65.6,30.26,WNW,285,0.0,0.0,88,0.00,,---,0.00,VWS V14.00,2013-07-16 06:41:00,
2013-07-16 02:46:00,69.2,65.8,30.26,WNW,284,0.0,0.0,89,0.00,,---,0.00,VWS V14.00,2013-07-16 06:46:00,
2013-07-16 02:51:00,69.1,65.7,30.25,WNW,284,0.0,0.0,89,0.00,,---,0.00,VWS V14.00,2013-07-16 06:51:00,
2013-07-16 02:56:00,69.0,65.9,30.26,WNW,284,0.0,1.0,90,0.00,,---,0.00,VWS V14.00,2013-07-16 06:56:00,
2013-07-16 03:01:00,68.9,65.5,30.25,WNW,285,0.0,1.0,89,0.00,,---,0.00,VWS V14.00,2013-07-16 07:01:00,
2013-07-16 03:06:00,68.8,65.8,30.25,WNW,284,0.0,1.0,90,0.00,,---,0.00,VWS V14.00,2013-07-16 07:06:00,
2013-07-16 03:11:00,68.7,65.7,30.26,WNW,285,0.0,0.0,90,0.00,,---,0.00,VWS V14.00,2013-07-16 07:11:00,
2013-07-16 03:16:00,68.7,65.7,30.26,WNW,285,0.0,0.0,90,0.00,,---,0.00,VWS V14.00,2013-07-16 07:16:00,
2013-07-16 03:21:00,68.6,65.9,30.26,WNW,285,0.0,0.0,91,0.00,,---,0.00,VWS V14.00,2013-07-16 07:21:00,
2013-07-16 03:26:00,68.5,65.8,30.26,WNW,284,0.0,0.0,91,0.00,,---,0.00,VWS V14.00,2013-07-16 07:26:00,
2013-07-16 03:31:00,68.5,65.8,30.25,WNW,284,0.0,0.0,91,0.00,,---,0.00,VWS V14.00,2013-07-16 07:31:00,
2013-07-16 03:36:00,68.4,65.7,30.25,WNW,285,0.0,0.0,91,0.00,,---,0.00,VWS V14.00,2013-07-16 07:36:00,
2013-07-16 03:41:00,68.3,65.6,30.25,WNW,285,0.0,0.0,91,0.00,,---,0.00,VWS V14.00,2013-07-16 07:41:00,
2013-07-16 03:46:00,68.2,65.5,30.25,WNW,284,0.0,0.0,91,0.00,,---,0.00,VWS V14.00,2013-07-16 07:46:00,
2013-07-16 03:51:00,68.1,65.4,30.25,WNW,285,0.0,0.0,91,0.00,,---,0.00,VWS V14.00,2013-07-16 07:51:00,
2013-07-16 03:56:00,68.1,65.7,30.25,WNW,284,0.0,0.0,92,0.00,,---,0.00,VWS V14.00,2013-07-16 07:56:00,
2013-07-16 04:01:00,68.0,65.6,30.25,WNW,285,0.0,1.0,92,0.00,,---,0.00,VWS V14.00,2013-07-16 08:01:00,
2013-07-16 04:06:00,68.0,65.6,30.25,WNW,285,0.0,1.0,92,0.00,,---,0.00,VWS V14.00,2013-07-16 08:06:00,
2013-07-16 04:11:00,67.9,65.5,30.25,WNW,285,0.0,0.0,92,0.00,,---,0.00,VWS V14.00,2013-07-16 08:11:00,
2013-07-16 04:16:00,67.8,65.4,30.25,WNW,285,0.0,0.0,92,0.00,,---,0.00,VWS V14.00,2013-07-16 08:16:00,
2013-07-16 04:21:00,67.7,65.3,30.25,WNW,285,0.0,0.0,92,0.00,,---,0.00,VWS V14.00,2013-07-16 08:21:00,
2013-07-16 04:26:00,67.6,65.2,30.25,WNW,285,0.0,0.0,92,0.00,,---,0.00,VWS V14.00,2013-07-16 08:26:00,
2013-07-16 04:31:00,67.5,65.1,30.25,WNW,285,0.0,0.0,92,0.00,,---,0.00,VWS V14.00,2013-07-16 08:31:00,
2013-07-16 04:36:00,67.4,65.0,30.25,WNW,285,0.0,0.0,92,0.00,,---,0.00,VWS V14.00,2013-07-16 08:36:00,
2013-07-16 04:41:00,67.2,65.1,30.25,WNW,285,0.0,0.0,93,0.00,,---,0.00,VWS V14.00,2013-07-16 08:41:00,
2013-07-16 04:46:00,67.1,65.0,30.25,WNW,285,0.0,0.0,93,0.00,,---,0.00,VWS V14.00,2013-07-16 08:46:00,
2013-07-16 04:51:00,67.0,64.9,30.25,WNW,284,0.0,0.0,93,0.00,,---,0.00,VWS V14.00,2013-07-16 08:51:00,
2013-07-16 04:56:00,67.0,64.9,30.26,WNW,285,0.0,0.0,93,0.00,,---,0.00,VWS V14.00,2013-07-16 08:56:00,
2013-07-16 05:01:00,66.8,64.7,30.26,WNW,284,0.0,0.0,93,0.00,,---,0.00,VWS V14.00,2013-07-16 09:01:00,
2013-07-16 05:06:00,66.7,64.6,30.26,WNW,285,0.0,0.0,93,0.00,,---,0.00,VWS V14.00,2013-07-16 09:06:00,
2013-07-16 05:11:00,66.6,64.8,30.26,WNW,284,0.0,0.0,94,0.00,,---,0.00,VWS V14.00,2013-07-16 09:11:00,
2013-07-16 05:16:00,66.5,64.7,30.26,WNW,285,0.0,0.0,94,0.00,,---,0.00,VWS V14.00,2013-07-16 09:16:00,
2013-07-16 05:21:00,66.5,64.7,30.26,WNW,284,0.0,0.0,94,0.00,,---,0.00,VWS V14.00,2013-07-16 09:21:00,
2013-07-16 05:26:00,66.5,65.0,30.26,WNW,284,0.0,0.0,95,0.00,,---,0.00,VWS V14.00,2013-07-16 09:26:00,
2013-07-16 05:31:00,66.5,65.0,30.26,WNW,285,0.0,0.0,95,0.00,,---,0.00,VWS V14.00,2013-07-16 09:31:00,
2013-07-16 05:36:00,66.5,65.0,30.27,WNW,284,0.0,0.0,95,0.00,,---,0.00,VWS V14.00,2013-07-16 09:36:00,
2013-07-16 05:41:00,66.5,65.0,30.26,WNW,284,0.0,0.0,95,0.00,,---,0.00,VWS V14.00,2013-07-16 09:41:00,
2013-07-16 05:46:00,66.5,65.0,30.26,WNW,284,0.0,0.0,95,0.00,,---,0.00,VWS V14.00,2013-07-16 09:46:00,
2013-07-16 05:51:00,66.5,65.0,30.26,WNW,284,0.0,0.0,95,0.00,,---,0.00,VWS V14.00,2013-07-16 09:51:00,
2013-07-16 05:56:00,66.5,65.0,30.26,WNW,285,0.0,0.0,95,0.00,,---,0.00,VWS V14.00,2013-07-16 09:56:00,
2013-07-16 06:01:00,66.5,65.0,30.26,WNW,285,0.0,0.0,95,0.00,,---,0.00,VWS V14.00,2013-07-16 10:01:00,
2013-07-16 06:06:00,66.5,65.0,30.26,WNW,284,0.0,0.0,95,0.00,,---,0.00,VWS V14.00,2013-07-16 10:06:00,
2013-07-16 06:11:00,66.4,64.6,30.27,WNW,284,0.0,0.0,94,0.00,,---,0.00,VWS V14.00,2013-07-16 10:11:00,
2013-07-16 06:16:00,66.3,64.5,30.28,WNW,285,0.0,0.0,94,0.00,,---,0.00,VWS V14.00,2013-07-16 10:16:00,
2013-07-16 06:21:00,66.2,64.4,30.28,WNW,285,0.0,0.0,94,0.00,,---,0.00,VWS V14.00,2013-07-16 10:21:00,
2013-07-16 06:26:00,66.1,64.6,30.28,WNW,284,0.0,0.0,95,0.00,,---,0.00,VWS V14.00,2013-07-16 10:26:00,
2013-07-16 06:31:00,66.1,64.6,30.28,WNW,285,0.0,0.0,95,0.00,,---,0.00,VWS V14.00,2013-07-16 10:31:00,
2013-07-16 06:36:00,66.1,64.6,30.28,WNW,285,0.0,0.0,95,0.00,,---,0.00,VWS V14.00,2013-07-16 10:36:00,
2013-07-16 06:41:00,66.0,64.5,30.28,WNW,284,0.0,0.0,95,0.00,,---,0.00,VWS V14.00,2013-07-16 10:41:00,
2013-07-16 06:46:00,66.0,64.5,30.28,WNW,284,0.0,0.0,95,0.00,,---,0.00,VWS V14.00,2013-07-16 10:46:00,
2013-07-16 06:51:00,66.0,64.5,30.28,WNW,285,0.0,0.0,95,0.00,,---,0.00,VWS V14.00,2013-07-16 10:51:00,
2013-07-16 06:56:00,66.0,64.8,30.28,WNW,285,0.0,0.0,96,0.00,,---,0.00,VWS V14.00,2013-07-16 10:56:00,
2013-07-16 07:01:00,66.0,64.8,30.29,NW,304,0.0,0.0,96,0.00,,---,0.00,VWS V14.00,2013-07-16 11:01:00,
2013-07-16 07:06:00,66.0,64.8,30.29,East,87,0.0,0.0,96,0.00,,---,0.00,VWS V14.00,2013-07-16 11:06:00,
2013-07-16 07:11:00,66.0,64.8,30.29,East,87,0.0,0.0,96,0.00,,---,0.00,VWS V14.00,2013-07-16 11:11:00,
2013-07-16 07:16:00,66.0,64.8,30.29,East,87,0.0,0.0,96,0.00,,---,0.00,VWS V14.00,2013-07-16 11:16:00,
2013-07-16 07:21:00,65.9,64.7,30.29,East,87,0.0,0.0,96,0.00,,---,0.00,VWS V14.00,2013-07-16 11:21:00,
2013-07-16 07:26:00,65.9,64.7,30.30,East,87,0.0,0.0,96,0.00,,---,0.00,VWS V14.00,2013-07-16 11:26:00,
2013-07-16 07:31:00,65.9,64.7,30.30,East,87,0.0,0.0,96,0.00,,---,0.00,VWS V14.00,2013-07-16 11:31:00,
2013-07-16 07:36:00,65.9,64.7,30.30,East,87,0.0,0.0,96,0.00,,---,0.00,VWS V14.00,2013-07-16 11:36:00,
2013-07-16 07:41:00,65.9,64.7,30.30,East,87,0.0,0.0,96,0.00,,---,0.00,VWS V14.00,2013-07-16 11:41:00,
2013-07-16 07:46:00,66.1,65.2,30.30,East,87,0.0,0.0,97,0.00,,---,0.00,VWS V14.00,2013-07-16 11:46:00,
2013-07-16 07:51:00,66.2,65.3,30.30,East,87,0.0,0.0,97,0.00,,---,0.00,VWS V14.00,2013-07-16 11:51:00,
2013-07-16 07:56:00,66.3,65.4,30.30,East,87,0.0,0.0,97,0.00,,---,0.00,VWS V14.00,2013-07-16 11:56:00,
2013-07-16 08:01:00,66.4,65.5,30.30,East,87,0.0,0.0,97,0.00,,---,0.00,VWS V14.00,2013-07-16 12:01:00,
2013-07-16 08:06:00,66.6,65.7,30.30,East,92,0.0,0.0,97,0.00,,---,0.00,VWS V14.00,2013-07-16 12:06:00,
2013-07-16 08:11:00,66.8,65.9,30.30,East,92,0.0,0.0,97,0.00,,---,0.00,VWS V14.00,2013-07-16 12:11:00,
2013-07-16 08:16:00,66.9,66.0,30.30,East,92,0.0,1.0,97,0.00,,---,0.00,VWS V14.00,2013-07-16 12:16:00,
2013-07-16 08:21:00,67.0,66.1,30.30,East,92,0.0,1.0,97,0.00,,---,0.00,VWS V14.00,2013-07-16 12:21:00,
2013-07-16 08:26:00,67.2,66.3,30.30,East,92,0.0,1.0,97,0.00,,---,0.00,VWS V14.00,2013-07-16 12:26:00,
2013-07-16 08:31:00,67.3,66.4,30.31,East,92,0.0,1.0,97,0.00,,---,0.00,VWS V14.00,2013-07-16 12:31:00,
2013-07-16 08:36:00,67.5,66.6,30.31,East,92,0.0,1.0,97,0.00,,---,0.00,VWS V14.00,2013-07-16 12:36:00,
2013-07-16 08:41:00,67.7,66.8,30.31,East,92,0.0,0.0,97,0.00,,---,0.00,VWS V14.00,2013-07-16 12:41:00,
2013-07-16 08:46:00,68.0,67.1,30.31,East,92,0.0,0.0,97,0.00,,---,0.00,VWS V14.00,2013-07-16 12:46:00,
2013-07-16 08:51:00,68.3,67.1,30.31,East,92,0.0,0.0,96,0.00,,---,0.00,VWS V14.00,2013-07-16 12:51:00,
2013-07-16 08:56:00,68.7,67.5,30.30,East,92,0.0,0.0,96,0.00,,---,0.00,VWS V14.00,2013-07-16 12:56:00,
2013-07-16 09:01:00,69.0,67.5,30.30,East,92,0.0,0.0,95,0.00,,---,0.00,VWS V14.00,2013-07-16 13:01:00,
2013-07-16 09:06:00,69.5,67.7,30.31,East,98,0.0,1.0,94,0.00,,---,0.00,VWS V14.00,2013-07-16 13:06:00,
2013-07-16 09:11:00,69.9,67.8,30.31,East,98,0.0,0.0,93,0.00,,---,0.00,VWS V14.00,2013-07-16 13:11:00,
2013-07-16 09:16:00,70.4,68.3,30.31,ESE,108,0.0,1.0,93,0.00,,---,0.00,VWS V14.00,2013-07-16 13:16:00,
2013-07-16 09:21:00,71.0,68.9,30.31,ESE,107,0.0,1.0,93,0.00,,---,0.00,VWS V14.00,2013-07-16 13:21:00,
2013-07-16 09:26:00,71.4,68.6,30.31,ESE,109,0.0,1.0,91,0.00,,---,0.00,VWS V14.00,2013-07-16 13:26:00,
2013-07-16 09:31:00,72.0,68.9,30.30,ESE,115,0.0,1.0,90,0.00,,---,0.00,VWS V14.00,2013-07-16 13:31:00,
2013-07-16 09:36:00,72.6,69.2,30.30,ESE,115,0.0,1.0,89,0.00,,---,0.00,VWS V14.00,2013-07-16 13:36:00,
2013-07-16 09:41:00,73.3,69.2,30.30,ESE,104,0.0,1.0,87,0.00,,---,0.00,VWS V14.00,2013-07-16 13:41:00,
2013-07-16 09:46:00,73.9,69.4,30.30,SE,129,0.0,2.0,86,0.00,,---,0.00,VWS V14.00,2013-07-16 13:46:00,
2013-07-16 09:51:00,74.4,69.6,30.30,SSE,168,2.0,2.0,85,0.00,,---,0.00,VWS V14.00,2013-07-16 13:51:00,
2013-07-16 09:56:00,74.7,69.9,30.29,South,189,0.0,4.0,85,0.00,,---,0.00,VWS V14.00,2013-07-16 13:56:00,
2013-07-16 10:01:00,75.1,70.3,30.29,SE,133,0.0,4.0,85,0.00,,---,0.00,VWS V14.00,2013-07-16 14:01:00,
2013-07-16 10:06:00,75.4,69.9,30.30,SE,141,1.0,4.0,83,0.00,,---,0.00,VWS V14.00,2013-07-16 14:06:00,
2013-07-16 10:11:00,75.7,69.8,30.29,East,95,0.0,1.0,82,0.00,,---,0.00,VWS V14.00,2013-07-16 14:11:00,
2013-07-16 10:16:00,76.2,70.3,30.29,East,95,0.0,1.0,82,0.00,,---,0.00,VWS V14.00,2013-07-16 14:16:00,
2013-07-16 10:21:00,76.7,70.1,30.29,East,95,0.0,1.0,80,0.00,,---,0.00,VWS V14.00,2013-07-16 14:21:00,
2013-07-16 10:26:00,77.3,71.0,30.29,SE,132,0.0,1.0,81,0.00,,---,0.00,VWS V14.00,2013-07-16 14:26:00,
2013-07-16 10:31:00,77.6,69.4,30.28,SE,132,0.0,1.0,76,0.00,,---,0.00,VWS V14.00,2013-07-16 14:31:00,
2013-07-16 10:36:00,78.2,71.2,30.28,SE,135,0.0,2.0,79,0.00,,---,0.00,VWS V14.00,2013-07-16 14:36:00,
2013-07-16 10:41:00,78.7,70.9,30.28,SE,129,0.0,1.0,77,0.00,,---,0.00,VWS V14.00,2013-07-16 14:41:00,
2013-07-16 10:46:00,78.8,71.0,30.28,SSW,195,0.0,2.0,77,0.00,,---,0.00,VWS V14.00,2013-07-16 14:46:00,
2013-07-16 10:51:00,78.9,70.3,30.28,SE,142,0.0,3.0,75,0.00,,---,0.00,VWS V14.00,2013-07-16 14:51:00,
2013-07-16 10:56:00,79.1,70.1,30.28,SE,142,0.0,3.0,74,0.00,,---,0.00,VWS V14.00,2013-07-16 14:56:00,
2013-07-16 11:01:00,79.5,70.5,30.28,SSE,152,1.0,3.0,74,0.00,,---,0.00,VWS V14.00,2013-07-16 15:01:00,
2013-07-16 11:06:00,79.7,71.5,30.28,SSE,168,3.0,3.0,76,0.00,,---,0.00,VWS V14.00,2013-07-16 15:06:00,
2013-07-16 11:11:00,79.8,70.4,30.28,South,179,0.0,2.0,73,0.00,,---,0.00,VWS V14.00,2013-07-16 15:11:00,
2013-07-16 11:16:00,80.2,70.4,30.28,SSW,210,1.0,2.0,72,0.00,,---,0.00,VWS V14.00,2013-07-16 15:16:00,
2013-07-16 11:21:00,80.6,70.3,30.28,East,98,0.0,2.0,71,0.00,,---,0.00,VWS V14.00,2013-07-16 15:21:00,
2013-07-16 11:26:00,81.2,70.9,30.27,East,98,0.0,2.0,71,0.00,,---,0.00,VWS V14.00,2013-07-16 15:26:00,
2013-07-16 11:31:00,81.5,69.1,30.27,South,178,0.0,3.0,66,0.00,,---,0.00,VWS V14.00,2013-07-16 15:31:00,
2013-07-16 11:36:00,81.6,70.0,30.27,South,178,0.0,3.0,68,0.00,,---,0.00,VWS V14.00,2013-07-16 15:36:00,
2013-07-16 11:41:00,82.1,70.5,30.27,South,177,2.0,3.0,68,0.00,,---,0.00,VWS V14.00,2013-07-16 15:41:00,
2013-07-16 11:46:00,82.2,71.4,30.27,South,176,0.0,3.0,70,0.00,,---,0.00,VWS V14.00,2013-07-16 15:46:00,
2013-07-16 11:51:00,82.7,73.2,30.26,South,171,0.0,3.0,73,0.00,,---,0.00,VWS V14.00,2013-07-16 15:51:00,
2013-07-16 11:56:00,83.0,71.4,30.27,South,171,3.0,3.0,68,0.00,,---,0.00,VWS V14.00,2013-07-16 15:56:00,
2013-07-16 12:01:00,83.2,71.1,30.26,South,169,0.0,3.0,67,0.00,,---,0.00,VWS V14.00,2013-07-16 16:01:00,
2013-07-16 12:06:00,83.4,72.2,30.26,South,172,1.0,3.0,69,0.00,,---,0.00,VWS V14.00,2013-07-16 16:06:00,
2013-07-16 12:11:00,83.6,71.5,30.26,SSE,155,2.0,4.0,67,0.00,,---,0.00,VWS V14.00,2013-07-16 16:11:00,
2013-07-16 12:16:00,83.4,71.7,30.26,SE,136,0.0,4.0,68,0.00,,---,0.00,VWS V14.00,2013-07-16 16:16:00,
2013-07-16 12:21:00,83.6,71.9,30.26,West,274,1.0,4.0,68,0.00,,---,0.00,VWS V14.00,2013-07-16 16:21:00,
2013-07-16 12:26:00,84.2,74.6,30.26,SE,128,0.0,4.0,73,0.00,,---,0.00,VWS V14.00,2013-07-16 16:26:00,
2013-07-16 12:31:00,84.5,72.8,30.25,South,179,0.0,4.0,68,0.00,,---,0.00,VWS V14.00,2013-07-16 16:31:00,
2013-07-16 12:36:00,84.7,71.6,30.25,NW,313,0.0,4.0,65,0.00,,---,0.00,VWS V14.00,2013-07-16 16:36:00,
2013-07-16 12:41:00,85.0,71.9,30.25,ESE,107,0.0,1.0,65,0.00,,---,0.00,VWS V14.00,2013-07-16 16:41:00,
2013-07-16 12:46:00,84.8,71.7,30.25,WNW,302,1.0,3.0,65,0.00,,---,0.00,VWS V14.00,2013-07-16 16:46:00,
2013-07-16 12:51:00,84.9,72.7,30.25,WNW,283,0.0,3.0,67,0.00,,---,0.00,VWS V14.00,2013-07-16 16:51:00,
2013-07-16 12:56:00,85.1,74.2,30.25,West,280,0.0,3.0,70,0.00,,---,0.00,VWS V14.00,2013-07-16 16:56:00,
2013-07-16 13:01:00,85.6,72.5,30.25,ESE,108,2.0,6.0,65,0.00,,---,0.00,VWS V14.00,2013-07-16 17:01:00,
2013-07-16 13:06:00,85.6,69.6,30.25,South,180,1.0,6.0,59,0.00,,---,0.00,VWS V14.00,2013-07-16 17:06:00,
2013-07-16 13:11:00,85.6,72.0,30.24,SW,221,0.0,2.0,64,0.00,,---,0.00,VWS V14.00,2013-07-16 17:11:00,
2013-07-16 13:16:00,85.9,70.4,30.25,SSE,157,0.0,5.0,60,0.00,,---,0.00,VWS V14.00,2013-07-16 17:16:00,
2013-07-16 13:21:00,85.9,71.4,30.24,East,92,1.0,5.0,62,0.00,,---,0.00,VWS V14.00,2013-07-16 17:21:00,
2013-07-16 13:26:00,86.2,71.7,30.24,SSE,148,0.0,5.0,62,0.00,,---,0.00,VWS V14.00,2013-07-16 17:26:00,
2013-07-16 13:31:00,86.4,72.8,30.24,ESE,109,0.0,5.0,64,0.00,,---,0.00,VWS V14.00,2013-07-16 17:31:00,
2013-07-16 13:36:00,86.6,70.6,30.24,SSE,147,3.0,5.0,59,0.00,,---,0.00,VWS V14.00,2013-07-16 17:36:00,
2013-07-16 13:41:00,86.5,71.9,30.23,South,183,0.0,3.0,62,0.00,,---,0.00,VWS V14.00,2013-07-16 17:41:00,
2013-07-16 13:46:00,86.5,71.9,30.23,South,183,0.0,3.0,62,0.00,,---,0.00,VWS V14.00,2013-07-16 17:46:00,
2013-07-16 13:51:00,87.0,72.4,30.23,SSW,203,0.0,3.0,62,0.00,,---,0.00,VWS V14.00,2013-07-16 17:51:00,
2013-07-16 13:56:00,87.3,74.6,30.23,SSE,150,2.0,3.0,66,0.00,,---,0.00,VWS V14.00,2013-07-16 17:56:00,
2013-07-16 14:01:00,87.1,73.4,30.23,SSW,206,2.0,4.0,64,0.00,,---,0.00,VWS V14.00,2013-07-16 18:01:00,
2013-07-16 14:06:00,87.2,74.5,30.22,North,355,1.0,4.0,66,0.00,,---,0.00,VWS V14.00,2013-07-16 18:06:00,
2013-07-16 14:11:00,87.5,71.4,30.23,NNW,340,0.0,4.0,59,0.00,,---,0.00,VWS V14.00,2013-07-16 18:11:00,
2013-07-16 14:16:00,87.5,74.3,30.22,SE,134,0.0,4.0,65,0.00,,---,0.00,VWS V14.00,2013-07-16 18:16:00,
2013-07-16 14:21:00,87.5,72.9,30.22,East,80,0.0,5.0,62,0.00,,---,0.00,VWS V14.00,2013-07-16 18:21:00,
2013-07-16 14:26:00,87.6,74.4,30.22,South,183,0.0,5.0,65,0.00,,---,0.00,VWS V14.00,2013-07-16 18:26:00,
2013-07-16 14:31:00,87.8,73.2,30.21,SSE,167,0.0,5.0,62,0.00,,---,0.00,VWS V14.00,2013-07-16 18:31:00,
2013-07-16 14:36:00,88.0,72.4,30.22,ESE,104,1.0,5.0,60,0.00,,---,0.00,VWS V14.00,2013-07-16 18:36:00,
2013-07-16 14:41:00,87.9,72.8,30.21,South,179,0.0,3.0,61,0.00,,---,0.00,VWS V14.00,2013-07-16 18:41:00,
2013-07-16 14:46:00,87.5,71.4,30.21,South,184,0.0,6.0,59,0.00,,---,0.00,VWS V14.00,2013-07-16 18:46:00,
2013-07-16 14:51:00,87.5,72.9,30.21,South,171,0.0,6.0,62,0.00,,---,0.00,VWS V14.00,2013-07-16 18:51:00,
2013-07-16 14:56:00,87.8,73.2,30.20,ESE,103,2.0,6.0,62,0.00,,---,0.00,VWS V14.00,2013-07-16 18:56:00,
2013-07-16 15:01:00,87.8,71.2,30.21,East,98,0.0,6.0,58,0.00,,---,0.00,VWS V14.00,2013-07-16 19:01:00,
2013-07-16 15:06:00,87.9,71.3,30.21,East,98,0.0,6.0,58,0.00,,---,0.00,VWS V14.00,2013-07-16 19:06:00,
2013-07-16 15:11:00,88.3,69.6,30.20,WNW,291,0.0,4.0,54,0.00,,---,0.00,VWS V14.00,2013-07-16 19:11:00,
2013-07-16 15:16:00,88.5,69.8,30.21,NE,56,0.0,4.0,54,0.00,,---,0.00,VWS V14.00,2013-07-16 19:16:00,
2013-07-16 15:21:00,88.5,69.2,30.20,ENE,58,0.0,4.0,53,0.00,,---,0.00,VWS V14.00,2013-07-16 19:21:00,
2013-07-16 15:26:00,88.8,69.5,30.20,SW,225,2.0,4.0,53,0.00,,---,0.00,VWS V14.00,2013-07-16 19:26:00,
2013-07-16 15:31:00,89.1,69.8,30.20,SSW,204,0.0,4.0,53,0.00,,---,0.00,VWS V14.00,2013-07-16 19:31:00,
2013-07-16 15:36:00,89.2,71.5,30.20,SSW,203,0.0,4.0,56,0.00,,---,0.00,VWS V14.00,2013-07-16 19:36:00,
2013-07-16 15:41:00,89.2,74.0,30.20,SSE,167,0.0,1.0,61,0.00,,---,0.00,VWS V14.00,2013-07-16 19:41:00,
2013-07-16 15:46:00,89.3,72.6,30.19,SSE,152,1.0,3.0,58,0.00,,---,0.00,VWS V14.00,2013-07-16 19:46:00,
2013-07-16 15:51:00,89.2,72.0,30.19,South,170,0.0,3.0,57,0.00,,---,0.00,VWS V14.00,2013-07-16 19:51:00,
2013-07-16 15:56:00,89.2,71.5,30.20,SSE,168,1.0,3.0,56,0.00,,---,0.00,VWS V14.00,2013-07-16 19:56:00,
2013-07-16 16:01:00,89.1,73.4,30.19,SE,144,1.0,3.0,60,0.00,,---,0.00,VWS V14.00,2013-07-16 20:01:00,
2013-07-16 16:06:00,88.6,72.4,30.19,South,185,2.0,5.0,59,0.00,,---,0.00,VWS V14.00,2013-07-16 20:06:00,
2013-07-16 16:11:00,88.3,73.6,30.19,South,173,0.0,2.0,62,0.00,,---,0.00,VWS V14.00,2013-07-16 20:11:00,
2013-07-16 16:16:00,88.3,73.6,30.19,South,173,0.0,2.0,62,0.00,,---,0.00,VWS V14.00,2013-07-16 20:16:00,
2013-07-16 16:21:00,88.3,72.7,30.19,South,173,0.0,2.0,60,0.00,,---,0.00,VWS V14.00,2013-07-16 20:21:00,
2013-07-16 16:26:00,87.9,73.7,30.19,South,173,0.0,2.0,63,0.00,,---,0.00,VWS V14.00,2013-07-16 20:26:00,
2013-07-16 16:31:00,87.9,74.2,30.18,South,173,0.0,2.0,64,0.00,,---,0.00,VWS V14.00,2013-07-16 20:31:00,
2013-07-16 16:36:00,87.8,75.0,30.19,South,173,0.0,2.0,66,0.00,,---,0.00,VWS V14.00,2013-07-16 20:36:00,
2013-07-16 16:41:00,87.6,73.0,30.19,South,173,0.0,0.0,62,0.00,,---,0.00,VWS V14.00,2013-07-16 20:41:00,
2013-07-16 16:46:00,87.6,73.0,30.19,South,175,0.0,1.0,62,0.00,,---,0.00,VWS V14.00,2013-07-16 20:46:00,
2013-07-16 16:51:00,87.5,70.9,30.20,South,171,0.0,1.0,58,0.00,,---,0.00,VWS V14.00,2013-07-16 20:51:00,
2013-07-16 16:56:00,87.7,74.9,30.19,South,171,0.0,1.0,66,0.00,,---,0.00,VWS V14.00,2013-07-16 20:56:00,
2013-07-16 17:01:00,87.8,74.6,30.19,South,171,0.0,1.0,65,0.00,,---,0.00,VWS V14.00,2013-07-16 21:01:00,
2013-07-16 17:06:00,87.9,73.7,30.19,South,171,0.0,1.0,63,0.00,,---,0.00,VWS V14.00,2013-07-16 21:06:00,
2013-07-16 17:11:00,87.9,72.8,30.19,SSW,211,0.0,3.0,61,0.00,,---,0.00,VWS V14.00,2013-07-16 21:11:00,
2013-07-16 17:16:00,87.5,73.4,30.19,SSW,211,0.0,3.0,63,0.00,,---,0.00,VWS V14.00,2013-07-16 21:16:00,
2013-07-16 17:21:00,87.3,74.1,30.20,SSW,210,0.0,3.0,65,0.00,,---,0.00,VWS V14.00,2013-07-16 21:21:00,
2013-07-16 17:26:00,86.5,73.8,30.20,South,172,0.0,6.0,66,0.00,,---,0.00,VWS V14.00,2013-07-16 21:26:00,
2013-07-16 17:31:00,85.9,73.7,30.20,SE,134,0.0,7.0,67,0.00,,---,0.00,VWS V14.00,2013-07-16 21:31:00,
2013-07-16 17:36:00,85.1,73.4,30.20,South,185,0.0,7.0,68,0.00,,---,0.00,VWS V14.00,2013-07-16 21:36:00,
2013-07-16 17:41:00,84.5,73.7,30.20,South,186,0.0,2.0,70,0.00,,---,0.00,VWS V14.00,2013-07-16 21:41:00,
2013-07-16 17:46:00,84.3,73.5,30.20,South,186,0.0,2.0,70,0.00,,---,0.00,VWS V14.00,2013-07-16 21:46:00,
2013-07-16 17:51:00,84.0,73.2,30.20,SSW,195,0.0,3.0,70,0.00,,---,0.00,VWS V14.00,2013-07-16 21:51:00,
2013-07-16 17:56:00,83.7,73.3,30.20,SSW,198,0.0,3.0,71,0.00,,---,0.00,VWS V14.00,2013-07-16 21:56:00,
2013-07-16 18:00:00,83.2,72.4,30.21,SSE,155,0.0,5.0,70,0.00,,---,0.00,VWS V14.00,2013-07-16 22:00:00,
2013-07-16 18:05:00,83.1,72.7,30.20,SSE,155,0.0,5.0,71,0.00,,---,0.00,VWS V14.00,2013-07-16 22:05:00,
2013-07-16 18:10:00,82.8,72.4,30.20,SSW,194,0.0,4.0,71,0.00,,---,0.00,VWS V14.00,2013-07-16 22:10:00,
2013-07-16 18:15:00,82.6,72.2,30.20,SSW,194,0.0,4.0,71,0.00,,---,0.00,VWS V14.00,2013-07-16 22:15:00,
2013-07-16 18:20:00,82.4,71.6,30.20,South,178,5.0,5.0,70,0.00,,---,0.00,VWS V14.00,2013-07-16 22:20:00,
2013-07-16 18:25:00,81.9,71.6,30.20,South,174,1.0,5.0,71,0.00,,---,0.00,VWS V14.00,2013-07-16 22:25:00,
2013-07-16 18:30:00,81.6,71.7,30.21,SSE,161,0.0,5.0,72,0.00,,---,0.00,VWS V14.00,2013-07-16 22:30:00,
2013-07-16 18:36:00,81.4,71.5,30.21,SSE,162,0.0,5.0,72,0.00,,---,0.00,VWS V14.00,2013-07-16 22:36:00,
2013-07-16 18:41:00,81.2,72.5,30.21,SSE,161,0.0,0.0,75,0.00,,---,0.00,VWS V14.00,2013-07-16 22:41:00,
2013-07-16 18:46:00,80.8,71.7,30.21,SW,230,0.0,3.0,74,0.00,,---,0.00,VWS V14.00,2013-07-16 22:46:00,
2013-07-16 18:51:00,80.4,71.8,30.21,South,190,0.0,4.0,75,0.00,,---,0.00,VWS V14.00,2013-07-16 22:51:00,
2013-07-16 18:56:00,80.2,72.3,30.22,NE,51,0.0,4.0,77,0.00,,---,0.00,VWS V14.00,2013-07-16 22:56:00,
2013-07-16 19:01:00,80.0,72.2,30.22,NE,52,0.0,4.0,77,0.00,,---,0.00,VWS V14.00,2013-07-16 23:01:00,
2013-07-16 19:06:00,79.8,71.9,30.22,NE,52,0.0,4.0,77,0.00,,---,0.00,VWS V14.00,2013-07-16 23:06:00,
2013-07-16 19:11:00,79.6,72.5,30.22,South,178,0.0,5.0,79,0.00,,---,0.00,VWS V14.00,2013-07-16 23:11:00,
2013-07-16 19:16:00,79.4,72.3,30.23,South,179,0.0,5.0,79,0.00,,---,0.00,VWS V14.00,2013-07-16 23:16:00,
2013-07-16 19:21:00,79.1,71.3,30.24,West,269,0.0,5.0,77,0.00,,---,0.00,VWS V14.00,2013-07-16 23:21:00,
2013-07-16 19:26:00,78.7,70.1,30.24,SW,214,0.0,5.0,75,0.00,,---,0.00,VWS V14.00,2013-07-16 23:26:00,
2013-07-16 19:31:00,78.5,70.7,30.24,SSE,149,0.0,5.0,77,0.00,,---,0.00,VWS V14.00,2013-07-16 23:31:00,
2013-07-16 19:36:00,78.1,71.1,30.24,NNE,25,1.0,5.0,79,0.00,,---,0.00,VWS V14.00,2013-07-16 23:36:00,
2013-07-16 20:00:00,76.7,71.2,30.25,South,180,0.0,4.0,83,0.00,,---,0.00,VWS V14.00,2013-07-17 00:00:00,
2013-07-16 20:41:00,76.7,71.2,30.25,South,180,0.0,4.0,83,0.00,,---,0.00,VWS V14.00,2013-07-17 00:41:00,
2013-07-16 20:46:00,74.3,70.2,30.26,NNW,343,0.0,0.0,87,0.00,,---,0.00,VWS V14.00,2013-07-17 00:46:00,
2013-07-16 20:51:00,74.3,70.5,30.26,NNW,343,0.0,0.0,88,0.00,,---,0.00,VWS V14.00,2013-07-17 00:51:00,
2013-07-16 20:56:00,74.2,70.8,30.25,NNW,343,0.0,0.0,89,0.00,,---,0.00,VWS V14.00,2013-07-17 00:56:00,
2013-07-16 21:01:00,74.1,70.7,30.25,NNW,342,0.0,0.0,89,0.00,,---,0.00,VWS V14.00,2013-07-17 01:01:00,
2013-07-16 21:06:00,74.0,70.6,30.26,NNW,343,0.0,0.0,89,0.00,,---,0.00,VWS V14.00,2013-07-17 01:06:00,
2013-07-16 21:11:00,73.8,70.7,30.24,NNW,343,0.0,1.0,90,0.00,,---,0.00,VWS V14.00,2013-07-17 01:11:00,
2013-07-16 21:16:00,73.7,70.6,30.24,NNW,343,0.0,1.0,90,0.01,,---,0.01,VWS V14.00,2013-07-17 01:16:00,
2013-07-16 21:21:00,73.5,70.4,30.24,NNW,343,0.0,1.0,90,0.01,,---,0.01,VWS V14.00,2013-07-17 01:21:00,
2013-07-16 21:26:00,73.1,70.3,30.24,NNW,342,0.0,1.0,91,0.01,,---,0.01,VWS V14.00,2013-07-17 01:26:00,
2013-07-16 21:31:00,72.8,70.0,30.24,NNW,342,0.0,1.0,91,0.01,,---,0.01,VWS V14.00,2013-07-17 01:31:00,
2013-07-16 21:36:00,72.6,69.8,30.24,NNW,342,0.0,1.0,91,0.01,,---,0.01,VWS V14.00,2013-07-17 01:36:00,
2013-07-16 21:41:00,72.3,69.8,30.24,NNW,342,1.0,1.0,92,0.01,,---,0.01,VWS V14.00,2013-07-17 01:41:00,
2013-07-16 21:46:00,72.1,69.7,30.24,NNW,343,0.0,1.0,92,0.01,,---,0.01,VWS V14.00,2013-07-17 01:46:00,
2013-07-16 21:51:00,72.0,69.6,30.24,NNW,342,0.0,1.0,92,0.01,,---,0.01,VWS V14.00,2013-07-17 01:51:00,
2013-07-16 21:56:00,71.9,69.4,30.25,NNW,343,0.0,1.0,92,0.01,,---,0.01,VWS V14.00,2013-07-17 01:56:00,
2013-07-16 22:01:00,71.7,69.3,30.25,NNW,343,0.0,1.0,92,0.01,,---,0.01,VWS V14.00,2013-07-17 02:01:00,
2013-07-16 22:06:00,71.6,69.5,30.25,NNW,342,0.0,1.0,93,0.01,,---,0.01,VWS V14.00,2013-07-17 02:06:00,
2013-07-16 22:11:00,71.4,69.3,30.24,NNW,342,0.0,0.0,93,0.01,,---,0.01,VWS V14.00,2013-07-17 02:11:00,
2013-07-16 22:16:00,71.3,69.2,30.25,NNW,343,0.0,0.0,93,0.01,,---,0.01,VWS V14.00,2013-07-17 02:16:00,
2013-07-16 22:21:00,71.3,69.2,30.26,NNW,343,0.0,0.0,93,0.01,,---,0.01,VWS V14.00,2013-07-17 02:21:00,
2013-07-16 22:26:00,71.1,69.3,30.26,NNW,342,0.0,0.0,94,0.01,,---,0.01,VWS V14.00,2013-07-17 02:26:00,
2013-07-16 22:31:00,71.0,69.2,30.26,NNW,343,0.0,0.0,94,0.01,,---,0.01,VWS V14.00,2013-07-17 02:31:00,
2013-07-16 22:36:00,71.0,69.2,30.26,NNW,343,0.0,0.0,94,0.01,,---,0.01,VWS V14.00,2013-07-17 02:36:00,
2013-07-16 22:41:00,70.9,69.1,30.26,NNW,343,0.0,0.0,94,0.00,,---,0.01,VWS V14.00,2013-07-17 02:41:00,
2013-07-16 22:46:00,70.8,69.0,30.26,NNW,342,0.0,0.0,94,0.00,,---,0.01,VWS V14.00,2013-07-17 02:46:00,
2013-07-16 22:51:00,70.7,68.9,30.26,NNW,342,0.0,0.0,94,0.00,,---,0.01,VWS V14.00,2013-07-17 02:51:00,
2013-07-16 22:56:00,70.6,68.8,30.26,NNW,342,0.0,0.0,94,0.00,,---,0.01,VWS V14.00,2013-07-17 02:56:00,
2013-07-16 23:01:00,70.5,68.7,30.26,NNW,343,0.0,0.0,94,0.00,,---,0.01,VWS V14.00,2013-07-17 03:01:00,
2013-07-16 23:06:00,70.3,68.5,30.26,NNW,343,0.0,0.0,94,0.00,,---,0.01,VWS V14.00,2013-07-17 03:06:00,
2013-07-16 23:11:00,70.3,68.5,30.26,NNW,343,0.0,0.0,94,0.00,,---,0.01,VWS V14.00,2013-07-17 03:11:00,
2013-07-16 23:16:00,70.2,68.7,30.25,NNW,343,0.0,0.0,95,0.00,,---,0.01,VWS V14.00,2013-07-17 03:16:00,
2013-07-16 23:21:00,70.1,68.6,30.25,NNW,342,0.0,0.0,95,0.00,,---,0.01,VWS V14.00,2013-07-17 03:21:00,
2013-07-16 23:26:00,70.1,68.6,30.25,NNW,342,0.0,0.0,95,0.00,,---,0.01,VWS V14.00,2013-07-17 03:26:00,
2013-07-16 23:31:00,70.0,68.5,30.25,NNW,342,0.0,0.0,95,0.00,,---,0.01,VWS V14.00,2013-07-17 03:31:00,
2013-07-16 23:36:00,70.0,68.5,30.25,NNW,343,0.0,0.0,95,0.00,,---,0.01,VWS V14.00,2013-07-17 03:36:00,
2013-07-16 23:41:00,70.0,68.8,30.25,NNW,343,0.0,0.0,96,0.00,,---,0.01,VWS V14.00,2013-07-17 03:41:00,
2013-07-16 23:46:00,70.1,68.9,30.25,NNW,342,0.0,0.0,96,0.00,,---,0.01,VWS V14.00,2013-07-17 03:46:00,
2013-07-16 23:51:00,70.1,68.9,30.25,NNW,342,0.0,0.0,96,0.00,,---,0.01,VWS V14.00,2013-07-17 03:51:00,
2013-07-16 23:56:00,70.0,68.8,30.25,NNW,342,0.0,0.0,96,0.00,,---,0.01,VWS V14.00,2013-07-17 03:56:00,